{"data":{"norad_id":35681,"epoch":"2026-05-25T04:37:39.605664Z","epoch_age_seconds":65613,"freshness":"FRESH","line1":"1 35681U 09041A   26145.19281951  .00000272  00000+0  47259-4 0  9992","line2":"2 35681  97.7383 303.4209 0000241  93.7238 266.4000 14.75207902903492","mean_motion":14.75207902,"eccentricity":2.41e-5,"inclination_deg":97.7383,"raan_deg":303.4209,"arg_perigee_deg":93.7238,"mean_anomaly_deg":266.4,"bstar":4.7259e-5,"rev_number":90349,"period_min":97.613359991343,"perigee_km":644.32214643317,"apogee_km":644.66063712165,"semimajor_km":7022.6283917774,"source":"CELESTRAK","updated_at":"2026-05-25T13:38:13.163401Z"}}